Location: Shaftesbury Settlement
(56.1590°N, 117.4369°W)
Time: 09:02:58
(UTC+00:00)

OTV 5 (USA 277) - Visible Passes

Search period start: 21 August 2019 00:00
Search period end: 31 August 2019 00:00
Orbit: 305 x 329 km, 54.5° (Epoch: 20 August)

Date Brightness Start Highest point End Pass type
(mag) Time Alt. Az. Time Alt. Az. Time Alt. Az.
21 Aug ? 10:00:37 14° SE 10:00:37 14° SE 10:01:04 10° ESE visible
21 Aug ? 11:31:34 12° SW 11:32:21 14° SW 11:33:47 10° S visible
25 Aug ? 04:38:16 10° SSW 04:38:56 14° S 04:38:56 14° S visible
26 Aug ? 04:52:10 10° SW 04:53:53 25° S 04:53:53 25° S visible
27 Aug ? 05:06:24 10° WSW 05:08:24 35° SSW 05:08:24 35° SSW visible
28 Aug ? 03:47:15 10° SSW 03:49:28 23° SSE 03:51:41 10° E visible
28 Aug ? 05:20:49 10° WSW 05:22:40 36° SW 05:22:40 36° SW visible
29 Aug ? 04:01:21 10° SW 04:03:52 35° SSE 04:05:52 14° E visible
29 Aug ? 05:35:19 10° W 05:36:45 27° WSW 05:36:45 27° WSW visible
30 Aug ? 04:15:42 10° WSW 04:18:20 49° SSE 04:19:51 21° E visible
30 Aug ? 05:49:51 10° W 05:50:44 18° W 05:50:44 18° W visible
